モーリー彗星

115P/Maury (2020)

English version
Home page
Updated on July 2, 2021

---------------------------------------------------------------------

・ プロフィール

・ 写真集

・ 軌道要素

Epoch 2020 May 31.0 TT = JDT 2459000.5
T 2020 July 29.77160 TT                                 Spoto
q   2.0568916            (2000.0)            P               Q
n   0.11144875     Peri.  121.01765     +0.45586969     +0.88993595
a   4.2764748      Node   176.02416     -0.86993106     +0.44884371
e   0.5190217      Incl.   11.67394     -0.18815625     +0.08095263
P   8.84
From 1213 observations 1985 Aug. 16-2020 Sept. 1, mean residual 0".7.
     Nongravitational parameters A1 = +0.59, A2 = -0.0307.

・ 星図

・ 光度変化

        m1 = 10.5 + 5 logΔ + 15.0 log r

---------------------------------------------------------------------

軌道要素はM.P.E.C. 2020-S188に掲載されたものです。
星図はステラナビゲータ Ver.10 (アストロアーツ) で作成したものです。
光度グラフはComet for Windowsで作成したものです。

---------------------------------------------------------------------

Copyright(C) Seiichi Yoshida (comet@aerith.net). All rights reserved.